Total_Precipitation_Accumulation
0.00 0.09 0.46 0.84 0.62 0.16 0.05 0.01 0.00 0.01 0.00 0.00 0.00 0.00 0.00 0.00 0.00 0.01 0.00 0.00 0.00 0.00 0.00 0.00 0.00 0.05 0.11 0.09 0.05 0.06 0.05 0.09 0.05 0.03 0.02 0.00 0.00 0.00 0.00 0.00 0.00 0.01 0.01 0.02 0.01 0.00 0.00 0.02 0.00
0.09 0.12 0.37 1.40 0.28 0.02 0.03 0.02 0.01 0.00 0.00 0.00 0.00 0.00 0.00 0.00 0.00 0.00 0.00 0.00 0.00 0.00 0.00 0.00 0.05 0.05 0.15 0.16 0.13 0.03 0.04 0.06 0.03 0.03 0.02 0.00 0.00 0.00 0.00 0.00 0.01 0.04 0.08 0.10 0.06 0.01 0.02 0.01 0.00
0.09 0.08 0.64 0.16 0.02 0.00 0.00 0.00 0.00 0.00 0.00 0.00 0.00 0.00 0.00 0.00 0.00 0.00 0.00 0.00 0.00 0.00 0.01 0.00 0.03 0.03 0.19 0.34 0.08 0.06 0.04 0.03 0.02 0.05 0.03 0.01 0.01 0.01 0.02 0.01 0.03 0.06 0.08 0.03 0.01 0.00 0.00 0.00 0.00
0.16 0.32 0.12 0.10 0.00 0.00 0.00 0.00 0.00 0.00 0.00 0.00 0.00 0.00 0.00 0.00 0.00 0.00 0.00 0.00 0.00 0.00 0.00 0.01 0.02 0.03 0.25 0.48 0.19 0.26 0.13 0.07 0.05 0.07 0.04 0.04 0.05 0.02 0.06 0.06 0.07 0.02 0.00 0.00 0.00 0.01 0.01 0.00 0.00
0.16 0.17 0.10 0.00 0.00 0.00 0.00 0.00 0.00 0.00 0.00 0.00 0.00 0.00 0.00 0.00 0.00 0.00 0.00 0.00 0.00 0.01 0.00 0.00 0.01 0.02 0.41 0.65 0.36 0.21 0.27 0.20 0.07 0.08 0.05 0.04 0.05 0.07 0.08 0.03 0.01 0.00 0.00 0.00 0.00 0.00 0.00 0.00 0.00
0.04 0.02 0.01 0.00 0.00 0.00 0.00 0.00 0.00 0.00 0.00 0.00 0.00 0.00 0.00 0.00 0.00 0.00 0.00 0.00 0.00 0.00 0.00 0.00 0.01 0.09 0.47 0.75 0.39 0.30 0.29 0.20 0.08 0.05 0.01 0.01 0.04 0.12 0.09 0.02 0.03 0.01 0.00 0.00 0.00 0.00 0.00 0.00 0.00
0.01 0.00 0.00 0.00 0.00 0.00 0.00 0.00 0.00 0.00 0.00 0.00 0.00 0.00 0.00 0.00 0.00 0.00 0.00 0.00 0.00 0.00 0.00 0.04 0.05 0.05 0.40 0.54 0.79 0.39 0.37 0.17 0.03 0.01 0.00 0.02 0.10 0.05 0.03 0.02 0.05 0.03 0.00 0.00 0.00 0.00 0.00 0.00 0.00
0.06 0.06 0.04 0.00 0.00 0.00 0.00 0.00 0.00 0.00 0.00 0.00 0.00 0.00 0.00 0.00 0.00 0.00 0.00 0.00 0.00 0.00 0.01 0.04 0.12 0.11 0.27 0.35 1.37 0.56 0.21 0.06 0.01 0.00 0.00 0.06 0.26 0.04 0.13 0.08 0.00 0.01 0.00 0.00 0.00 0.00 0.00 0.00 0.00
0.01 0.01 0.01 0.01 0.00 0.00 0.00 0.00 0.00 0.00 0.00 0.00 0.00 0.00 0.00 0.00 0.00 0.00 0.00 0.00 0.00 0.01 0.01 0.02 0.09 0.18 0.14 0.19 0.32 0.39 0.22 0.02 0.00 0.00 0.00 0.05 0.04 0.00 0.01 0.04 0.01 0.00 0.00 0.00 0.00 0.00 0.00 0.00 0.00
0.00 0.00 0.00 0.00 0.00 0.00 0.00 0.00 0.00 0.00 0.00 0.00 0.00 0.00 0.00 0.00 0.00 0.00 0.00 0.00 0.00 0.00 0.01 0.01 0.01 0.01 0.10 0.21 0.27 0.20 0.05 0.00 0.00 0.01 0.02 0.00 0.00 0.01 0.01 0.00 0.00 0.00 0.00 0.00 0.00 0.00 0.00 0.00 0.02
0.00 0.00 0.00 0.00 0.00 0.00 0.00 0.00 0.00 0.00 0.00 0.00 0.00 0.00 0.00 0.00 0.00 0.00 0.00 0.00 0.00 0.00 0.00 0.00 0.01 0.06 0.09 0.02 0.00 0.01 0.01 0.00 0.00 0.01 0.01 0.01 0.02 0.01 0.00 0.00 0.00 0.00 0.00 0.00 0.00 0.00 0.00 0.00 0.00
0.00 0.00 0.00 0.00 0.00 0.00 0.00 0.00 0.00 0.00 0.00 0.00 0.00 0.00 0.00 0.00 0.00 0.00 0.00 0.00 0.00 0.00 0.00 0.00 0.02 0.07 0.06 0.02 0.01 0.00 0.00 0.00 0.00 0.00 0.01 0.02 0.05 0.01 0.00 0.00 0.00 0.00 0.00 0.00 0.00 0.00 0.00 0.00 0.00
0.00 0.00 0.00 0.00 0.00 0.00 0.00 0.00 0.00 0.00 0.00 0.00 0.00 0.00 0.00 0.00 0.00 0.00 0.00 0.00 0.00 0.00 0.00 0.00 0.01 0.05 0.06 0.02 0.01 0.00 0.00 0.00 0.00 0.00 0.01 0.02 0.02 0.01 0.00 0.00 0.00 0.00 0.00 0.00 0.00 0.00 0.00 0.00 0.00
0.00 0.00 0.00 0.00 0.00 0.00 0.00 0.00 0.00 0.00 0.00 0.00 0.00 0.00 0.00 0.01 0.00 0.00 0.00 0.00 0.00 0.00 0.00 0.00 0.03 0.04 0.08 0.01 0.00 0.01 0.01 0.00 0.00 0.00 0.00 0.01 0.00 0.05 0.02 0.00 0.00 0.00 0.00 0.00 0.00 0.00 0.00 0.00 0.00
0.00 0.00 0.00 0.00 0.00 0.00 0.00 0.00 0.00 0.00 0.00 0.00 0.00 0.03 0.00 0.00 0.00 0.00 0.01 0.01 0.00 0.00 0.00 0.00 0.00 0.02 0.07 0.02 0.01 0.00 0.00 0.00 0.01 0.00 0.00 0.00 0.01 0.02 0.00 0.00 0.00 0.00 0.00 0.00 0.00 0.00 0.00 0.00 0.02
0.00 0.05 0.01 0.00 0.00 0.00 0.00 0.00 0.00 0.00 0.00 0.00 0.00 0.01 0.01 0.00 0.00 0.00 0.10 0.19 0.02 0.00 0.00 0.00 0.00 0.00 0.00 0.02 0.06 0.01 0.00 0.00 0.00 0.00 0.00 0.00 0.00 0.00 0.00 0.00 0.01 0.01 0.00 0.01 0.04 0.03 0.00 0.00 0.02
0.17 0.26 0.02 0.00 0.00 0.00 0.00 0.00 0.00 0.00 0.00 0.00 0.00 0.00 0.01 0.00 0.00 0.10 0.05 0.05 0.02 0.00 0.00 0.00 0.00 0.00 0.00 0.01 0.01 0.00 0.00 0.00 0.00 0.00 0.00 0.00 0.00 0.00 0.00 0.01 0.03 0.03 0.01 0.00 0.06 0.02 0.05 0.01 0.00
0.57 0.12 0.12 0.01 0.00 0.00 0.00 0.00 0.00 0.00 0.00 0.00 0.00 0.00 0.02 0.03 0.10 0.03 0.01 0.02 0.04 0.00 0.00 0.00 0.00 0.00 0.00 0.00 0.00 0.00 0.00 0.00 0.00 0.00 0.00 0.01 0.03 0.03 0.01 0.00 0.00 0.01 0.01 0.01 0.03 0.08 0.06 0.01 0.00
0.10 0.09 0.03 0.01 0.00 0.04 0.02 0.00 0.00 0.00 0.00 0.00 0.01 0.00 0.00 0.02 0.23 0.23 0.05 0.03 0.03 0.00 0.00 0.01 0.11 0.00 0.00 0.01 0.01 0.01 0.02 0.01 0.00 0.00 0.00 0.01 0.01 0.02 0.02 0.00 0.01 0.02 0.03 0.08 0.04 0.04 0.03 0.02 0.03
0.02 0.09 0.06 0.02 0.01 0.04 0.00 0.00 0.00 0.00 0.00 0.00 0.00 0.00 0.01 0.00 0.05 0.04 0.06 0.04 0.03 0.01 0.00 0.03 0.02 0.01 0.03 0.02 0.05 0.18 0.13 0.03 0.00 0.00 0.00 0.01 0.01 0.03 0.04 0.06 0.04 0.05 0.05 0.10 0.06 0.04 0.00 0.02 0.00
0.03 0.09 0.16 0.07 0.02 0.00 0.00 0.00 0.00 0.00 0.00 0.00 0.00 0.00 0.00 0.04 0.01 0.04 0.07 0.03 0.02 0.01 0.00 0.00 0.02 0.00 0.00 0.01 0.01 0.05 0.06 0.03 0.02 0.00 0.01 0.02 0.04 0.04 0.03 0.04 0.05 0.06 0.02 0.04 0.07 0.05 0.08 0.11 0.01
0.06 0.18 0.49 0.42 0.07 0.01 0.00 0.00 0.00 0.00 0.00 0.00 0.00 0.00 0.01 0.01 0.01 0.02 0.01 0.01 0.00 0.00 0.00 0.00 0.00 0.00 0.01 0.03 0.00 0.02 0.01 0.02 0.00 0.01 0.00 0.01 0.02 0.07 0.03 0.06 0.11 0.07 0.08 0.12 0.07 0.09 0.11 0.10 0.07
0.04 0.03 0.08 0.37 0.19 0.06 0.01 0.06 0.00 0.00 0.00 0.00 0.02 0.01 0.00 0.00 0.01 0.00 0.00 0.00 0.00 0.00 0.00 0.00 0.00 0.00 0.01 0.02 0.07 0.03 0.02 0.00 0.01 0.01 0.06 0.07 0.06 0.10 0.12 0.11 0.09 0.08 0.05 0.12 0.12 0.12 0.24 0.25 0.07
0.01 0.01 0.05 0.21 0.35 0.54 0.26 0.07 0.01 0.00 0.00 0.00 0.00 0.00 0.02 0.01 0.00 0.00 0.04 0.00 0.00 0.00 0.00 0.00 0.00 0.00 0.00 0.01 0.04 0.05 0.07 0.05 0.07 0.06 0.05 0.09 0.05 0.15 0.29 0.16 0.15 0.12 0.16 0.19 0.14 0.07 0.11 0.18 0.11
0.00 0.00 0.05 0.19 0.32 0.42 0.16 0.20 0.05 0.00 0.00 0.00 0.00 0.00 0.00 0.00 0.00 0.00 0.00 0.00 0.00 0.00 0.00 0.00 0.00 0.00 0.00 0.00 0.00 0.01 0.02 0.03 0.03 0.01 0.00 0.02 0.07 0.31 0.18 0.49 0.22 0.38 0.46 0.31 0.25 0.12 0.20 0.16 0.09
0.00 0.06 0.33 0.65 0.60 0.06 0.07 0.04 0.00 0.00 0.00 0.00 0.00 0.00 0.00 0.00 0.00 0.00 0.00 0.00 0.00 0.00 0.00 0.00 0.00 0.00 0.00 0.00 0.00 0.00 0.00 0.00 0.00 0.03 0.02 0.06 0.23 0.33 0.34 0.47 0.94 0.95 1.27 0.80 0.28 0.09 0.12 0.10 0.06
0.03 0.14 0.18 0.16 0.15 0.11 0.26 0.01 0.00 0.00 0.00 0.00 0.00 0.00 0.00 0.00 0.00 0.00 0.00 0.00 0.00 0.00 0.00 0.00 0.00 0.00 0.00 0.00 0.00 0.00 0.01 0.03 0.09 0.16 0.06 0.20 0.23 0.40 0.48 0.78 0.56 0.36 0.33 0.24 0.16 0.13 0.07 0.08 0.06
0.02 0.03 0.00 0.00 0.22 0.85 0.20 0.00 0.00 0.00 0.00 0.00 0.00 0.00 0.00 0.00 0.00 0.00 0.00 0.00 0.00 0.00 0.00 0.00 0.00 0.00 0.00 0.00 0.00 0.01 0.00 0.02 0.10 0.15 0.21 0.35 0.25 0.16 0.06 0.07 0.12 0.14 0.13 0.08 0.07 0.07 0.08 0.05 0.06
0.00 0.00 0.01 0.05 0.05 0.36 0.08 0.00 0.00 0.00 0.00 0.00 0.00 0.00 0.00 0.00 0.00 0.00 0.00 0.00 0.00 0.00 0.00 0.00 0.00 0.00 0.00 0.00 0.00 0.01 0.10 0.33 0.99 0.38 0.26 0.30 0.17 0.04 0.00 0.00 0.00 0.00 0.00 0.00 0.00 0.00 0.01 0.01 0.01
0.00 0.00 0.00 0.01 0.03 0.03 0.09 0.01 0.00 0.00 0.00 0.00 0.00 0.00 0.00 0.00 0.00 0.00 0.00 0.00 0.00 0.00 0.00 0.00 0.00 0.00 0.00 0.00 0.01 0.07 0.22 0.24 0.32 0.16 0.06 0.02 0.00 0.00 0.00 0.00 0.00 0.00 0.00 0.01 0.01 0.00 0.00 0.01 0.01